Weather History for Port Hope, MI

Change the Weather History Date:

Wednesday, October 23, 2013

  Actual Average Record
Temperature  
Mean Temperature 42 °F -  
Max Temperature 46 °F 55 °F 78 °F (2000)
Min Temperature 39 °F 41 °F 36 °F (1997)
Degree Days  
Heating Degree Days 23    
Moisture  
Dew Point 30 °F    
Average Humidity 62    
Maximum Humidity 73    
Minimum Humidity 48    
Precipitation  
Precipitation 0.00 in - - ()
Sea Level Pressure  
Sea Level Pressure 29.83 in    
Wind  
Wind Speed 8 mph (WNW)    
Max Wind Speed 12 mph    
Max Gust Speed 21 mph    
Averages and records for this station are not official NWS values.
T = Trace of Precipitation, MM = Missing Value Source: NWS Daily Summary

Daily Weather History Graph

Daily Weather History Graph

Search for Another Location

Airport:

Trip Planner

Search our weather history database for the weather conditions in past years. The results will help you decide how hot, cold, wet, or windy it might be!

Date:

Astronomy

Oct. 23, 2013 Rise Set
Actual Time 7:56 AM EDT 6:33 PM EDT
Civil Twilight 7:26 AM EDT 7:03 PM EDT
Nautical Twilight 6:53 AM EDT 7:37 PM EDT
Astronomical Twilight 6:19 AM EDT 8:10 PM EDT
Moon 9:58 PM EDT (10/23) 12:17 PM EDT (10/23)
Length of Visible Light 11h 36m
Length of Day
10h 37m
Waning Gibbous, 79% of the Moon is Illuminated
Oct 23
Waning Gibbous
Oct 26
Last Quarter
Nov 3
New
Nov 10
First Quarter
Nov 17
Full

Hourly Weather History & Observations

Time (EDT) Temp. Windchill Dew Point Humidity Pressure Visibility Wind Dir Wind Speed Gust Speed Precip Events Conditions
12:51 AM 42.1 °F 36.6 °F 34.0 °F 73% 29.83 in - NW 9.2 mph - N/A   Unknown
1:51 AM 42.1 °F 37.7 °F 33.1 °F 70% 29.82 in - NW 6.9 mph - N/A   Unknown
2:51 AM 42.1 °F 38.4 °F 33.1 °F 70% 29.82 in - Variable 5.8 mph - N/A   Unknown
3:51 AM 42.1 °F 37.7 °F 33.1 °F 70% 29.81 in - NW 6.9 mph - N/A   Unknown
4:51 AM 41.0 °F 35.8 °F 32.0 °F 70% 29.80 in - NW 8.1 mph - N/A   Unknown
5:51 AM 41.0 °F 35.2 °F 28.9 °F 62% 29.80 in - NW 9.2 mph - N/A   Unknown
6:51 AM 41.0 °F 39.0 °F 30.0 °F 65% 29.81 in - Variable 3.5 mph - N/A   Unknown
7:51 AM 41.0 °F 37.1 °F 30.9 °F 67% 29.81 in - NNW 5.8 mph - N/A   Unknown
8:51 AM 41.0 °F 35.8 °F 28.9 °F 62% 29.82 in - NW 8.1 mph - N/A   Unknown
9:51 AM 42.1 °F 36.1 °F 30.9 °F 65% 29.83 in - NW 10.4 mph 16.1 mph N/A   Unknown
10:51 AM 43.0 °F 37.7 °F 30.0 °F 60% 29.83 in - NW 9.2 mph - N/A   Unknown
11:51 AM 43.0 °F 36.8 °F 28.9 °F 58% 29.84 in - NW 11.5 mph 17.3 mph N/A   Unknown
12:51 PM 44.1 °F 39.0 °F 28.9 °F 55% 29.84 in - NW 9.2 mph 18.4 mph N/A   Unknown
1:51 PM 44.1 °F 39.0 °F 27.0 °F 51% 29.83 in - NW 9.2 mph 17.3 mph N/A   Unknown
2:51 PM 45.0 °F 39.7 °F 28.0 °F 52% 29.82 in - WNW 10.4 mph - N/A   Unknown
3:51 PM 44.1 °F 40.8 °F 26.1 °F 49% 29.82 in - WNW 5.8 mph 16.1 mph N/A   Unknown
4:51 PM 45.0 °F 40.1 °F 26.1 °F 48% 29.82 in - West 9.2 mph 19.6 mph N/A   Unknown
5:51 PM 44.1 °F 40.1 °F 26.1 °F 49% 29.83 in - West 6.9 mph 18.4 mph N/A   Unknown
6:51 PM 42.1 °F 36.6 °F 27.0 °F 55% 29.84 in - WNW 9.2 mph 17.3 mph N/A   Unknown
7:51 PM 39.9 °F 34.5 °F 30.0 °F 68% 29.85 in - West 8.1 mph - N/A   Unknown
8:51 PM 39.9 °F 34.5 °F 28.9 °F 65% 29.86 in - West 8.1 mph - N/A   Unknown
9:51 PM 39.9 °F 33.4 °F 30.0 °F 68% 29.86 in - WNW 10.4 mph 20.7 mph N/A   Unknown
10:51 PM 39.9 °F 34.5 °F 30.0 °F 68% 29.86 in - WNW 8.1 mph - N/A   Unknown
11:51 PM 39.9 °F 33.4 °F 30.0 °F 68% 29.85 in - WNW 10.4 mph 19.6 mph N/A   Unknown